[[{"header":{"parameterUnit":"m.s-1","parameterCategory":1,"la1":30.2991,"la2":30.254,"lo1":-89.0895,"lo2":-89.0444,"dy":0.0017,"dx":0.0017,"nx":28,"ny":28,"refTime":"2024-08-17T09:00:00:Z","depth":0,"parameterNumber":2,"parameterNumberName":"U-component_of_WINDS"},"data":[0,0,0,0,0,0,0,0,0,0,0,0,0,0,0,0,0,0,0,0,0,0,0,0,0,0,0,0,0,0,0,0,0,0,0,0,0,0,0,0,0,0,0,0,0,0,0,0,0,0,0,0,0,0,0,0,0,0,0.3895,0.3896,0,0.3962,0.3963,0.3963,0.3989,0.3988,0.3988,0.3988,0.4056,0.4058,0.406,0,0,0,0,0,0,0,0,0,0,0,0,0,0.3788,0.379,0.3895,0.3896,0.3897,0.3962,0.3963,0.3964,0.3989,0.3988,0.3988,0.3988,0.4056,0.4058,0.406,0,0,0,0,0,0,0,0,0,0,0,0,0,0.3842,0.379,0.3895,0.3917,0.392,0.3962,0.3963,0.3964,0.3989,0.3988,0.3988,0.3988,0.4055,0.4058,0.4061,0.4085,0,0,0.407,0.4071,0,0,0,0,0,0,0,0,0.3839,0.3846,0.3913,0.3916,0.3919,0.3967,0.395,0.4004,0.3989,0.3963,0.3988,0.3988,0.4027,0.4032,0.4045,0.4088,0.4091,0.407,0.4072,0.4073,0.4074,0,0,0,0,0,0,0,0.3836,0.3844,0.3922,0.3914,0.3918,0.3923,0.3931,0.396,0.3995,0.3965,0.3967,0.3974,0.4028,0.4042,0.4047,0.4092,0.407,0.4073,0.4074,0.4076,0.4157,0.4157,0,0,0,0,0,0,0.3828,0.384,0.3919,0.3924,0.3878,0.3925,0.3934,0.3952,0.3995,0.4002,0.3975,0.3975,0.4037,0.4043,0.4049,0.408,0.4073,0.4076,0.4078,0.4156,0.4157,0.4157,0,0,0,0,0,0,0.3826,0.3835,0.3917,0.3883,0.3893,0.3928,0.3947,0.3953,0.3967,0.4003,0.4009,0.3983,0.4037,0.4045,0.4076,0.4083,0.4077,0.408,0.4156,0.4157,0.4157,0.4142,0,0,0,0,0,0,0.3823,0.3834,0.3844,0.3883,0.3895,0.3942,0.3948,0.3955,0.3972,0.3974,0.4012,0.4018,0.4038,0.4071,0.4079,0.4087,0.4082,0.4156,0.4156,0.4157,0.4142,0.4142,0.4142,0,0,0,0,0,0.3819,0.3838,0.3845,0.3854,0.3909,0.3943,0.395,0.3972,0.3973,0.3983,0.4005,0.4016,0.408,0.4074,0.4083,0.4092,0.4155,0.4156,0.4157,0.4142,0.4142,0.4142,0,0,0,0,0,0,0.38,0.3843,0.3851,0.3883,0.3909,0.3947,0.3961,0.3972,0.3998,0.3998,0.4025,0.4033,0.4061,0.408,0.4072,0.4117,0.4119,0.4121,0.4104,0.4104,0.4104,0.4099,0.4085,0,0,0,0,0,0.3799,0.3823,0.386,0.3885,0.3897,0.3926,0.3942,0.3957,0.3985,0.3996,0.4021,0.4047,0.4073,0.409,0.4115,0.4144,0.4152,0.4155,0.4154,0.4154,0.4156,0.4171,0.4173,0.416,0.416,0.416,0,0,0.3798,0.3825,0.3839,0.3881,0.3903,0.3927,0.3936,0.3961,0.3979,0.4,0.403,0.4049,0.408,0.4109,0.4123,0.4125,0.4161,0.4155,0.4155,0.4157,0.4172,0.4174,0.4175,0.4161,0.416,0.416,0,0,0.3809,0.3832,0.3854,0.3876,0.3908,0.3927,0.3932,0.3968,0.3982,0.4012,0.4028,0.4049,0.4094,0.4115,0.4131,0.4147,0.4158,0.4155,0.4155,0.4169,0.417,0.4171,0.4177,0.4178,0.4157,0.4157,0.4157,0,0.3804,0.3841,0.3864,0.3889,0.3906,0.3926,0.3948,0.3967,0.4007,0.4018,0.4019,0.4074,0.4097,0.4131,0.4134,0.4147,0.4153,0.4151,0.4168,0.417,0.4171,0.4176,0.4178,0.4156,0.4156,0.4156,0.4156,0,0.3833,0.3858,0.3872,0.3909,0.3929,0.3952,0.3978,0.3994,0.4007,0.4025,0.4055,0.4082,0.4113,0.4122,0.4135,0.4158,0.4158,0.4163,0.4166,0.4171,0.4176,0.4179,0.4155,0.4156,0.4156,0.4156,0,0,0.3835,0.3883,0.3888,0.3904,0.3941,0.3961,0.3984,0.4014,0.4027,0.4053,0.4073,0.4109,0.4114,0.4132,0.4147,0.416,0.417,0.4164,0.4165,0.4164,0.4195,0.4191,0.4193,0.4177,0.4178,0.4178,0.4193,0,0.385,0.3893,0.3914,0.3948,0.3971,0.3988,0.4008,0.4032,0.405,0.4071,0.4091,0.4116,0.4121,0.4132,0.4145,0.4166,0.4177,0.4165,0.4196,0.4196,0.4188,0.4196,0.4192,0.4204,0.4195,0.4195,0.4196,0,0.3874,0.39,0.3935,0.3968,0.3978,0.3996,0.4025,0.4045,0.4072,0.4084,0.4104,0.4118,0.4142,0.4142,0.4175,0.4167,0.418,0.4192,0.4193,0.4197,0.4197,0.42,0.4209,0.4211,0.4199,0.4199,0.4199,0,0.3871,0.3914,0.3941,0.3955,0.3993,0.4005,0.4022,0.4048,0.4065,0.4089,0.41,0.4127,0.4141,0.4162,0.4183,0.4181,0.4213,0.4215,0.4223,0.4223,0.423,0.4229,0.4241,0.4238,0.4238,0.4238,0.4238,0,0.3886,0.3907,0.394,0.3957,0.398,0.4003,0.4026,0.4043,0.4067,0.4086,0.4103,0.4121,0.4147,0.4168,0.4184,0.4209,0.4216,0.4225,0.4229,0.4224,0.4223,0.4233,0.4233,0.4239,0.4239,0.4239,0.4238,0,0.3887,0.391,0.394,0.3974,0.3983,0.3999,0.4027,0.4043,0.4061,0.4085,0.4092,0.412,0.4145,0.4168,0.4202,0.4212,0.4237,0.4242,0.4228,0.423,0.4237,0.4236,0.4256,0.426,0.4254,0.4254,0.4254,0,0.3896,0.3912,0.3947,0.3961,0.3978,0.4001,0.4017,0.4039,0.4056,0.4087,0.4099,0.4125,0.4148,0.4187,0.421,0.4235,0.4241,0.4246,0.4245,0.4239,0.4241,0.424,0.4241,0.4246,0.4246,0.4246,0.4246,0,0.3907,0.3918,0.3941,0.3967,0.3986,0.4009,0.4031,0.4042,0.4068,0.4085,0.4111,0.4129,0.4162,0.4188,0.4216,0.4232,0.4243,0.4246,0.4249,0.4244,0.4235,0.424,0.4228,0.4246,0.4246,0.4246,0.4246,0.4246,0.3912,0.3927,0.3954,0.3979,0.3998,0.4018,0.4035,0.4054,0.4076,0.4105,0.4117,0.4143,0.4168,0.4206,0.4222,0.4243,0.4245,0.425,0.4251,0.4252,0.425,0.4231,0.4248,0.4248,0.4248,0.4248,0.4248,0,0.3925,0.3942,0.3965,0.3996,0.4015,0.4023,0.4048,0.4064,0.4086,0.4109,0.413,0.4159,0.4184,0.4208,0.4234,0.4245,0.4251,0.4251,0.4251,0.4254,0.4247,0.4242,0.4246,0.4246,0.4246,0.4246,0.4246,0.4246,0.3933,0.3959,0.3972,0.4007,0.4024,0.405,0.4063,0.4082,0.41,0.4131,0.4152,0.4167,0.419,0.4217,0.424,0.4246,0.4255,0.4254,0.4261,0.4255,0.4255,0.4255,0.425,0.4255,0.4255,0.4266,0.4266,0.4267]},{"header":{"parameterUnit":"m.s-1","parameterCategory":1,"la1":30.2991,"la2":30.254,"lo1":-89.0895,"lo2":-89.0444,"dy":0.0017,"dx":0.0017,"nx":28,"ny":28,"refTime":"2024-08-17T09:00:00:Z","depth":0,"parameterNumber":3,"parameterNumberName":"V-component_of_WINDS"},"data":[0,0,0,0,0,0,0,0,0,0,0,0,0,0,0,0,0,0,0,0,0,0,0,0,0,0,0,0,0,0,0,0,0,0,0,0,0,0,0,0,0,0,0,0,0,0,0,0,0,0,0,0,0,0,0,0,0,0,5.0934,5.0933,0,5.0861,5.086,5.0859,5.0779,5.0778,5.0776,5.0775,5.0697,5.0696,5.0695,0,0,0,0,0,0,0,0,0,0,0,0,0,5.1002,5.1001,5.0934,5.0933,5.0932,5.0861,5.086,5.0859,5.0779,5.0777,5.0776,5.0775,5.0698,5.0696,5.0695,0,0,0,0,0,0,0,0,0,0,0,0,0,5.0955,5.1001,5.0934,5.0884,5.0879,5.0861,5.086,5.0859,5.0779,5.0777,5.0776,5.0774,5.0698,5.0696,5.0695,5.072,0,0,5.069,5.069,0,0,0,0,0,0,0,0,5.0958,5.0952,5.0892,5.0887,5.0881,5.0827,5.0855,5.0812,5.078,5.0817,5.0775,5.0773,5.0742,5.0736,5.0726,5.0717,5.0713,5.069,5.0689,5.0689,5.0688,0,0,0,0,0,0,0,5.0961,5.0955,5.0905,5.0891,5.0885,5.0864,5.0855,5.0847,5.079,5.0813,5.0807,5.08,5.0738,5.0728,5.0724,5.0712,5.069,5.0689,5.0688,5.0687,5.0718,5.0719,0,0,0,0,0,0,5.0972,5.0958,5.0907,5.0903,5.0916,5.0864,5.0854,5.0846,5.079,5.0779,5.0802,5.0797,5.0731,5.0726,5.0721,5.0745,5.0689,5.0687,5.0686,5.0716,5.0718,5.072,0,0,0,0,0,0,5.0974,5.0968,5.091,5.0929,5.092,5.0865,5.0856,5.0846,5.0835,5.0781,5.077,5.0802,5.073,5.0723,5.0721,5.0742,5.0687,5.0685,5.0714,5.0717,5.0719,5.0796,0,0,0,0,0,0,5.0976,5.097,5.0979,5.093,5.0919,5.0913,5.0858,5.0846,5.0833,5.0826,5.0778,5.0768,5.0728,5.0724,5.072,5.0738,5.0684,5.0712,5.0715,5.0718,5.0791,5.0801,5.0809,0,0,0,0,0,5.0979,5.1004,5.098,5.0975,5.0931,5.0914,5.0908,5.0862,5.0835,5.0844,5.0809,5.077,5.0741,5.0724,5.0719,5.0738,5.071,5.0714,5.0718,5.0787,5.0799,5.0809,0,0,0,0,0,0,5.1056,5.0996,5.097,5.0979,5.0953,5.0901,5.091,5.0876,5.0856,5.0849,5.0792,5.0782,5.0786,5.0762,5.0745,5.0758,5.072,5.0723,5.0774,5.0785,5.0793,5.0798,5.0683,0,0,0,0,0,5.1075,5.1067,5.1015,5.1028,5.1016,5.0966,5.0957,5.0924,5.0894,5.0882,5.0846,5.0817,5.0801,5.0792,5.0774,5.0788,5.0775,5.0798,5.0807,5.0814,5.0817,5.082,5.0829,5.0733,5.0733,5.0733,0,0,5.1112,5.1078,5.1077,5.1043,5.1018,5.1011,5.0957,5.0951,5.0945,5.088,5.0876,5.0849,5.0813,5.0819,5.0819,5.0798,5.0841,5.0819,5.0826,5.0824,5.0825,5.0834,5.0843,5.0735,5.0735,5.0734,0,0,5.1176,5.115,5.1158,5.1135,5.1098,5.1065,5.1067,5.102,5.1,5.0995,5.0946,5.0937,5.0911,5.0887,5.0871,5.0926,5.0888,5.0922,5.0967,5.0971,5.0979,5.0985,5.1003,5.101,5.0925,5.0925,5.0926,0,5.1226,5.1214,5.1166,5.1163,5.1149,5.1092,5.1098,5.1078,5.1037,5.1028,5.1006,5.0972,5.0943,5.0941,5.0955,5.0945,5.0944,5.0926,5.0982,5.0988,5.0993,5.1009,5.1016,5.093,5.0929,5.0929,5.0928,0,5.1277,5.1269,5.1279,5.1242,5.123,5.1232,5.1183,5.1176,5.1144,5.1113,5.1107,5.1072,5.1045,5.1043,5.1011,5.1036,5.1024,5.0993,5.0952,5.1007,5.1021,5.1027,5.0936,5.0934,5.0933,5.0932,0,0,5.1385,5.1323,5.1327,5.1309,5.1265,5.1257,5.1257,5.1232,5.1225,5.12,5.1196,5.1176,5.1146,5.1129,5.1094,5.1098,5.1141,5.1066,5.1064,5.108,5.1164,5.1186,5.1194,5.1117,5.1118,5.1119,5.1166,0,5.144,5.1435,5.1392,5.1399,5.1391,5.1336,5.1335,5.1307,5.1278,5.1265,5.1232,5.1218,5.1181,5.117,5.1172,5.1136,5.1157,5.1132,5.1111,5.1111,5.112,5.1202,5.1225,5.1272,5.1172,5.1173,5.1173,0,5.1502,5.1481,5.1488,5.1443,5.1437,5.1437,5.141,5.1399,5.1366,5.1344,5.1325,5.1287,5.1281,5.1245,5.1235,5.1219,5.1207,5.1189,5.1189,5.1184,5.1144,5.1196,5.1285,5.1292,5.1182,5.1181,5.118,0,5.1579,5.1552,5.1551,5.1538,5.1486,5.1487,5.1466,5.1431,5.1418,5.1395,5.1385,5.1362,5.1348,5.1329,5.1284,5.1263,5.1279,5.1239,5.1259,5.126,5.1263,5.1263,5.1349,5.126,5.126,5.126,5.126,0,5.1642,5.1648,5.1585,5.1585,5.1589,5.154,5.1545,5.1518,5.1487,5.148,5.1432,5.1425,5.1368,5.1354,5.132,5.1315,5.131,5.1291,5.1281,5.1294,5.1296,5.1284,5.1279,5.1261,5.1261,5.1261,5.126,0,5.1727,5.1686,5.1682,5.1634,5.1622,5.1627,5.1584,5.1581,5.155,5.1541,5.1535,5.1485,5.1467,5.1421,5.1391,5.1367,5.1371,5.1355,5.1383,5.1376,5.1398,5.1396,5.1478,5.1485,5.1393,5.1394,5.1395,0,5.177,5.1773,5.1725,5.1717,5.1698,5.1686,5.1673,5.1624,5.1612,5.1575,5.1576,5.1554,5.1534,5.1507,5.1467,5.1443,5.1424,5.1455,5.142,5.1432,5.1422,5.1421,5.1421,5.1462,5.1463,5.1464,5.1465,0,5.1849,5.1828,5.1812,5.1789,5.1775,5.1754,5.173,5.1726,5.1671,5.166,5.1642,5.1626,5.1596,5.1574,5.1544,5.1519,5.1482,5.1476,5.1479,5.1491,5.1506,5.1496,5.1401,5.1474,5.1473,5.1472,5.1472,5.1472,5.1912,5.1912,5.1878,5.1862,5.1839,5.1818,5.1812,5.178,5.1764,5.1736,5.1708,5.1692,5.1658,5.1614,5.1592,5.1577,5.1558,5.1563,5.1564,5.1565,5.157,5.1511,5.1572,5.1572,5.1571,5.1571,5.1571,0,5.1987,5.1963,5.1949,5.1917,5.1904,5.1872,5.1844,5.1834,5.1821,5.1793,5.1774,5.1752,5.1731,5.1689,5.1663,5.166,5.1642,5.1654,5.1653,5.1648,5.159,5.1589,5.1669,5.1669,5.1669,5.1669,5.1669,5.1669,5.2025,5.2022,5.1997,5.1983,5.1958,5.1942,5.1929,5.1908,5.1886,5.1863,5.1846,5.1819,5.1785,5.1757,5.1735,5.1723,5.1715,5.1733,5.1715,5.1661,5.1652,5.1643,5.1642,5.1732,5.1732,5.1774,5.1774,5.1775]}]]